Regional Weather Roundup
Issued by NWS Columbia, SC

Current Version | Previous Version | Text Only | Print | Product List | Glossary On
Versions: 1 2 3 4 5 6 7 8 9 10 11 12 13 14 15 16 17 18 19 20 21 22 23 24 25 26 27 28 29 30 31 32 33 34 35 36 37 38 39 40 41 42 43 44 45 46 47 48 49 50
000
ASUS42 KCAE 311210
RWRCAE
REGIONAL WEATHER ROUNDUP
NATIONAL WEATHER SERVICE COLUMBIA SC
800 AM EDT FRI JUL 31 2015

NOTE: "FAIR" INDICATES FEW OR NO CLOUDS BELOW 12,000 FEET WITH NO
SIGNIFICANT WEATHER AND/OR OBSTRUCTIONS TO VISIBILITY.

NOT ALL STATIONS ARE QUALITY CONTROLLED BY THE NATIONAL
WEATHER SERVICE. USE DATA WITH CAUTION...ESPECIALLY
DEWPOINT OBSERVATIONS.

SCZ001>056-GAZ040-063>065-077-311300-
...UPSTATE SOUTH CAROLINA...

CITY           SKY/WX    TMP DP  RH WIND       PRES   REMARKS
ANDERSON       SUNNY     79  66  64 E10       29.99R
6HR MIN TEMP:  77; 6HR MAX TEMP:  82;

SPARTANBURG      N/A     77  64  65 NE6       30.00R
CLEMSON        PTSUNNY   79  65  62 E8        30.01R
6HR MIN TEMP:  77; 6HR MAX TEMP:  83;

GREENVILLE     MOSUNNY   77  63  61 NE9       30.02R
6HR MIN TEMP:  76; 6HR MAX TEMP:  81;

GREENWOOD      MOSUNNY   78  65  63 NE7G18    30.00R
6HR MIN TEMP:  76; 6HR MAX TEMP:  80;

GREER          PTSUNNY   76  65  68 N7        30.01R
6HR MIN TEMP:  75; 6HR MAX TEMP:  80;

ROCK HILL      CLOUDY    76  62  62 NE9       30.01R
6HR MIN TEMP:  74; 6HR MAX TEMP:  77;

CHESTER        CLOUDY    77  64  65 N7        30.00R
LAURENS        MOSUNNY   73  73 100 NE5       29.99R


...CENTRAL SOUTH CAROLINA...

CITY           SKY/WX    TMP DP  RH WIND       PRES   REMARKS
COLUMBIA APT   PTSUNNY   79  70  74 NE7       29.95R
6HR MIN TEMP:  79; 6HR MAX TEMP:  83; 6HR PCP: TRACE;

COLUMBIA OWENS PTSUNNY   80  66  62 CALM      29.96R
6HR MIN TEMP:  78; 6HR MAX TEMP:  81;

DARLINGTON     MOSUNNY   79  63  57 N9        29.96R
6HR MIN TEMP:  77; 6HR MAX TEMP:  79;

FLORENCE       MOSUNNY   80  68  66 N10       29.93R
6HR MIN TEMP:  78; 6HR MAX TEMP:  81;

MCENTIRE ANGB  PTSUNNY   80  66  61 NE8       29.94R
6HR MIN TEMP:  74; 6HR MAX TEMP:  80;

ORANGEBURG     SUNNY     81  73  76 NE12      29.93R
6HR MIN TEMP:  75; 6HR MAX TEMP:  81;

SUMTER SHAW    PTSUNNY   81  66  59 N12       29.92S
6HR MIN TEMP:  76; 6HR MAX TEMP:  81;

NEWBERRY       MOSUNNY   75  66  73 NE9       30.00R
AIKEN          FAIR      77  70  78 NE12      29.98R
BARNWELL       FAIR      79  77  94 CALM      29.93S
MANNING        FAIR      77  72  83 N5        29.93S
CAMDEN         FAIR      79  64  61 N7        29.97R
LANCASTER      MOSUNNY   75  68  78 NE6       29.99R
WINNSBORO      MOSUNNY   75  68  78 N6        29.97S


...EASTERN AND COASTAL SOUTH CAROLINA...

CITY           SKY/WX    TMP DP  RH WIND       PRES   REMARKS
MYRTLE BEACH   PTSUNNY   81  73  78 NW5       29.93S
N MYRTLE BCH   PTSUNNY   79  76  90 CALM      29.92R
6HR MIN TEMP:  78; 6HR MAX TEMP:  81; 6HR PCP:  0.01;

CONWAY         FAIR      79  75  89 N7        29.92R
MARION         FAIR      75  70  83 N7        29.93R
HARTSVILLE     FAIR      79  61  53 N7        29.96R
FLORENCE       MOSUNNY   80  68  66 N10       29.93R
6HR MIN TEMP:  78; 6HR MAX TEMP:  81;

DARLINGTON     MOSUNNY   79  63  57 N9        29.96R
6HR MIN TEMP:  77; 6HR MAX TEMP:  79;

CHARLESTON APT MOSUNNY   81  74  79 NW6       29.91S
6HR MIN TEMP:  78; 6HR MAX TEMP:  81;

MOUNT PLEASANT   N/A     81  75  83 W5        29.91S
WALTERBORO     MOSUNNY   81  75  83 W3        29.93S
BEAUFORT       PTSUNNY   80  76  87 SW6       29.92S
6HR MIN TEMP:  78; 6HR MAX TEMP:  81; 6HR PCP: TRACE;



...EASTERN GEORGIA...

CITY           SKY/WX    TMP DP  RH WIND       PRES   REMARKS
AUGUSTA BUSH F MOSUNNY   78  76  93 CALM      29.92R
6HR MIN TEMP:  75; 6HR MAX TEMP:  78;

AUGUSTA DANIEL MOSUNNY   80  74  81 NE5       29.95R
6HR MIN TEMP:  78; 6HR MAX TEMP:  81;

THOMSON        SUNNY     80  76  89 NE9       29.98S
6HR MIN TEMP:  75; 6HR MAX TEMP:  80;

WASHINGTON     FAIR      81  77  89 NE7       29.96R
CLAXTON        FAIR      79  75  89 CALM      29.94R
SYLVANIA       SUNNY     80  79  96 CALM      29.93F
6HR MIN TEMP:  78; 6HR MAX TEMP:  81;

STATESBORO     MOSUNNY   79  79 100 SW3       29.93S
6HR MIN TEMP:  77; 6HR MAX TEMP:  79;

SAVANNAH       PTSUNNY   79  75  87 SW7       29.93S
6HR MIN TEMP:  78; 6HR MAX TEMP:  80;



...SOUTHERN NORTH CAROLINA...

CITY           SKY/WX    TMP DP  RH WIND       PRES   REMARKS
CHARLOTTE      MOSUNNY   77  59  53 N13G20    30.01R
6HR MIN TEMP:  73; 6HR MAX TEMP:  79;

MONROE         MOSUNNY   75  64  68 N8        30.00R
6HR MIN TEMP:  72; 6HR MAX TEMP:  77;

WADESBORO      PTSUNNY   80  58  48 N9        29.98R
6HR MIN TEMP:  78; 6HR MAX TEMP:  82;

ROCKINGHAM     PTSUNNY   77  61  57 N6        29.97R
6HR MIN TEMP:  77; 6HR MAX TEMP:  79;

RUTHERFORDTON  PTSUNNY   75  62  64 N6        30.04R
6HR MIN TEMP:  73; 6HR MAX TEMP:  79;

ASHEVILLE      SUNNY     71  59  65 N10       30.10R
6HR MIN TEMP:  69; 6HR MAX TEMP:  74;


$$



USA.gov is the U.S. government's official web portal to all federal, state and local government web resources and services.